Location: Las Navas
(40.6024°N, 4.3345°W)
Time: 09:08:44
(UTC+00:00)

IRS-1A Rocket - Pass Details

Date: 03 April 2020
Orbit: 851 x 931 km, 99.2° (Epoch: 29 May)

Event Time Altitude Azimuth Distance (km) Brightness Sun altitude
Rises 19:43:46 0° 164° (SSE) 3,455 7.0 -11.8°
Reaches altitude 10° 19:46:07 10° 164° (SSE) 2,532 6.4 -12.2°
Maximum altitude 19:51:46 89° 88° (E) 901 4.3 -13.2°
Drops below altitude 10° 19:57:35 10° 346° (NNW) 2,602 7.2 -14.2°
Sets 20:00:02 0° 346° (NNW) 3,558 8.0 -14.7°
